Change the Weather History Date:

Saturday, March 15, 2014

  Actual Average Record
Temperature  
Mean Temperature 46 °F -  
Max Temperature 57 °F 47 °F 72 °F (1990)
Min Temperature 37 °F 27 °F 7 °F (1993)
Degree Days  
Heating Degree Days 19    
Moisture  
Dew Point 24 °F    
Average Humidity 41    
Maximum Humidity 65    
Minimum Humidity 28    
Precipitation  
Precipitation 0.00 in - - ()
Sea Level Pressure  
Sea Level Pressure 29.86 in    
Wind  
Wind Speed 6 mph (WNW)    
Max Wind Speed 23 mph    
Max Gust Speed 31 mph    
Visibility 10 miles    
Events      
Averages and records for this station are not official NWS values.
T = Trace of Precipitation, MM = Missing Value Source: NWS Daily Summary

Daily Weather History Graph

Daily Weather History Graph

Search for Another Location

Airport or City:

Trip Planner

Search our weather history database for the weather conditions in past years. The results will help you decide how hot, cold, wet, or windy it might be!

Date:

Astronomy

Mar. 15, 2014 Rise Set
Actual Time 7:08 AM EDT 7:03 PM EDT
Civil Twilight 6:41 AM EDT 7:31 PM EDT
Nautical Twilight 6:09 AM EDT 8:03 PM EDT
Astronomical Twilight 5:37 AM EDT 8:35 PM EDT
Moon 6:20 PM EDT (3/15) 6:19 AM EDT (3/15)
Length of Visible Light 12h 49m
Length of Day
11h 55m
Waxing Gibbous, 99% of the Moon is Illuminated
Mar 15
Waxing Gibbous
Mar 16
Full
Mar 23
Last Quarter
Mar 30
New
Apr 7
First Quarter

Hourly Weather History & Observations

Time (EDT) Temp. Windchill Dew Point Humidity Pressure Visibility Wind Dir Wind Speed Gust Speed Precip Events Conditions
12:53 AM 39.9 °F - 24.1 °F 53% 29.90 in 10.0 mi Calm Calm - N/A   Overcast
1:53 AM 39.9 °F - 24.1 °F 53% 29.87 in 10.0 mi Calm Calm - N/A   Overcast
2:53 AM 41.0 °F - 24.1 °F 51% 29.85 in 10.0 mi Calm Calm - N/A   Overcast
3:53 AM 44.1 °F 40.1 °F 24.1 °F 45% 29.79 in 10.0 mi Variable 6.9 mph - N/A   Overcast
4:53 AM 39.0 °F - 25.0 °F 57% 29.78 in 10.0 mi Calm Calm - N/A   Overcast
5:53 AM 37.0 °F - 26.1 °F 65% 29.79 in 10.0 mi Calm Calm - N/A   Clear
6:53 AM 37.0 °F - 26.1 °F 65% 29.81 in 10.0 mi Calm Calm - N/A   Overcast
7:53 AM 42.1 °F 40.2 °F 26.1 °F 53% 29.81 in 10.0 mi SW 3.5 mph - N/A   Mostly Cloudy
8:53 AM 46.0 °F 43.9 °F 25.0 °F 44% 29.80 in 10.0 mi Variable 4.6 mph - 0.00 in   Mostly Cloudy
9:53 AM 48.9 °F - 26.1 °F 41% 29.80 in 10.0 mi WSW 6.9 mph - N/A   Scattered Clouds
10:53 AM 54.0 °F - 28.0 °F 37% 29.80 in 10.0 mi West 13.8 mph 28.8 mph N/A   Clear
11:53 AM 55.0 °F - 28.0 °F 35% 29.80 in 10.0 mi West 16.1 mph 31.1 mph N/A   Partly Cloudy
12:53 PM 54.0 °F - 25.0 °F 33% 29.82 in 10.0 mi WNW 21.9 mph 28.8 mph N/A   Mostly Cloudy
1:53 PM 55.0 °F - 23.0 °F 29% 29.82 in 10.0 mi NW 23.0 mph 31.1 mph N/A   Mostly Cloudy
2:53 PM 55.0 °F - 24.1 °F 30% 29.82 in 10.0 mi West 18.4 mph 31.1 mph N/A   Partly Cloudy
3:53 PM 55.0 °F - 23.0 °F 29% 29.83 in 10.0 mi West 18.4 mph 27.6 mph N/A   Mostly Cloudy
4:53 PM 55.0 °F - 21.9 °F 28% 29.84 in 10.0 mi West 12.7 mph 25.3 mph N/A   Mostly Cloudy
5:53 PM 54.0 °F - 21.0 °F 28% 29.86 in 10.0 mi NW 19.6 mph 27.6 mph N/A   Partly Cloudy
6:53 PM 52.0 °F - 21.0 °F 30% 29.90 in 10.0 mi WNW 9.2 mph - N/A   Partly Cloudy
7:53 PM 51.1 °F - 21.0 °F 31% 29.94 in 10.0 mi WNW 9.2 mph - N/A   Partly Cloudy
8:53 PM 48.9 °F - 21.0 °F 33% 29.97 in 10.0 mi West 11.5 mph 18.4 mph N/A   Clear
9:53 PM 46.9 °F - 19.9 °F 34% 29.99 in 10.0 mi West 6.9 mph - N/A   Clear
10:53 PM 44.1 °F 38.1 °F 24.1 °F 45% 30.03 in 10.0 mi NW 11.5 mph - N/A   Clear
11:53 PM 42.1 °F 36.1 °F 21.9 °F 45% 30.03 in 10.0 mi NW 10.4 mph - N/A   Clear